Content
SEND FEEDBACK

Daily
Averages
Monthly
Summary
United States of America

ASHEVILLE, NORTH CAROLINA


Home > North America > United States > North Carolina
Elevation: 2240 feet     Latitude: 35 36N     Longitude: 082 32W

WEATHER
 
SELECT A DAY
Number of Records: 222,845;   Date Range: 1/1/95 - 4/14/14
 
SHARE

PRINT THIS DATA

[ ← Previous Day ]
WEATHER ALMANAC - MAY 25, 2013
[ Next Day → ]
[ °C ]   °F
Weather ElementAverageHighLow
Temperature59.1 °F73 °F (3:54 pm)45 °F (5:54 am)
Dewpoint37 °F44.1 °F (11:54 pm)30.9 °F (3:54 pm)
Humidity48.1 %77 % (1:54 am)21 % (3:54 pm)
Barometer30.24 in30.32 in (8:54 am)30.19 in (3:54 pm)
Wind Speed8.4 mph17.3 mph (4:54 pm)
Wind Gust28.8 mph (5:54 pm)
Weather ElementAverage
Visibility10 mi
Wind DirectionWSW (236.1 °)

Weather ElementTotal
Precipitation---
Heating Degree Days6 (Base 65)
Growing Degree Days9 (Base 50)
Averaged from 23 records on May 25, 2013
WEATHER CONDITIONS BREAKOUT
WIND DIRECTION BREAKOUT
WEATHER BY HOUR - MAY 25, 2013
[ °C ]   °F
Local TimeTemperatureDewpointHumidityBarometerVisibilityWind DirectionWind SpeedGust SpeedPrecipitationEventsConditions
1:54 AM46.9 °F39.9 °F77 %30.25 in10.0 miNNW (330°)8.1 mphClear
2:54 AM48.0 °F39.0 °F71 %30.24 in10.0 miNNW (340°)13.8 mphClear
3:54 AM48.9 °F37.9 °F66 %30.22 in10.0 miNorth (360°)10.4 mphClear
4:54 AM48.0 °F37.9 °F68 %30.23 in10.0 miNNW (340°)13.8 mph19.6 mphClear
5:54 AM45.0 °F37.9 °F76 %30.25 in10.0 miCalmClear
6:54 AM46.0 °F37.9 °F73 %30.29 in10.0 miNNW (330°)4.6 mphClear
7:54 AM50.0 °F39.0 °F66 %30.30 in10.0 miNorth (360°)6.9 mphClear
8:54 AM55.0 °F37.9 °F53 %30.32 in10.0 miNW (320°)9.2 mphClear
9:54 AM57.9 °F37.0 °F46 %30.32 in10.0 miNW (320°)8.1 mphClear
10:54 AM61.0 °F34.0 °F36 %30.31 in10.0 miVariable6.9 mphClear
11:54 AM64.0 °F36.0 °F35 %30.30 in10.0 miNorth (360°)6.9 mphClear
12:54 PM68.0 °F37.0 °F32 %30.27 in10.0 miVariable5.8 mphClear
1:54 PM70.0 °F36.0 °F29 %30.24 in10.0 miNNW (340°)8.1 mphClear
2:54 PM72.0 °F37.0 °F28 %30.21 in10.0 miNorth (10°)8.1 mph16.1 mphClear
3:54 PM73.0 °F30.9 °F21 %30.19 in10.0 miNorth (10°)12.7 mph23.0 mphClear
4:54 PM73.0 °F33.1 °F23 %30.19 in10.0 miNNW (340°)17.3 mph23.0 mphClear
5:54 PM70.0 °F34.0 °F27 %30.21 in10.0 miNorth (360°)15.0 mph28.8 mphClear
6:54 PM69.1 °F33.1 °F26 %30.21 in10.0 miNorth (350°)12.7 mph21.9 mphClear
7:54 PM66.0 °F35.1 °F32 %30.22 in10.0 miNorth (10°)9.2 mph18.4 mphClear
8:54 PM64.0 °F35.1 °F34 %30.21 in10.0 miNorth (360°)8.1 mphClear
9:54 PM57.9 °F39.0 °F49 %30.22 in10.0 miNNW (340°)4.6 mphClear
10:54 PM54.0 °F42.1 °F64 %30.20 in10.0 miCalmClear
11:54 PM52.0 °F44.1 °F74 %30.22 in10.0 miWSW (250°)3.5 mphOvercast
Hourly data recorded from KAVL, located 11.39 miles away from Asheville, North Carolina







STORIES FROM OUR PARTNERS